Powrót do katalogu

CZ-6A DEB

AktywnyPO
NORAD 60879·DEBRIS·🇨🇳 China

Wystrzelony Aug 6, 2024 z Taiyuan Satellite Launch Center

Loading…

Następne Przeloty (najbliższe 24 godziny)

TLE

ŚwieżeSource: Space-Track

Epoka: Sep 14, 2026, 00:41 UTC

1 60879U 24140KJ  26257.02890960  .00000647  00000-0  30262-3 0  9990
2 60879  89.0254 267.5889 0050044 258.1034 101.4541 14.18547239107526

Śledź CZ-6A DEB w czasie rzeczywistym z AllMySat

Download on the App Store